Change the Weather History Date:

Thursday, March 28, 2013

  Actual Average Record
Temperature  
Mean Temperature 47 °F 60 °F  
Max Temperature 61 °F 72 °F 86 °F (2007)
Min Temperature 32 °F 47 °F 26 °F (1955)
Degree Days  
Heating Degree Days 18 6  
Month to date heating degree days 415 259  
Since 1 July heating degree days 2048 2191  
Cooling Degree Days 0 1  
Month to date cooling degree days 3 20  
Year to date cooling degree days 23 23  
Moisture  
Dew Point 25 °F    
Average Humidity 47    
Maximum Humidity 85    
Minimum Humidity 20    
Precipitation  
Precipitation 0.00 in 0.12 in 0.86 in (1954)
Month to date precipitation 2.78 3.61  
Year to date precipitation 10.94 11.18  
Sea Level Pressure  
Sea Level Pressure 30.26 in    
Wind  
Wind Speed 4 mph (NNW)    
Max Wind Speed 18 mph    
Max Gust Speed 24 mph    
Visibility 10 miles    
Events      
T = Trace of Precipitation, MM = Missing Value Source: NWS Daily Summary

Daily Weather History Graph

Daily Weather History Graph

Search for Another Location

Airport or City:

Trip Planner

Search our weather history database for the weather conditions in past years. The results will help you decide how hot, cold, wet, or windy it might be!

Date:

Astronomy

Mar. 28, 2013 Rise Set
Actual Time 7:16 AM EDT 7:41 PM EDT
Civil Twilight 6:51 AM EDT 8:06 PM EDT
Nautical Twilight 6:22 AM EDT 8:35 PM EDT
Astronomical Twilight 5:52 AM EDT 9:05 PM EDT
Moon 9:23 PM EDT (3/28) 7:48 AM EDT (3/28)
Length of Visible Light 13h 14m
Length of Day
12h 25m
Full, 98% of the Moon is Illuminated
Mar 28
Full
Apr 3
Last Quarter
Apr 10
New
Apr 18
First Quarter
Apr 25
Full

Hourly Weather History & Observations

Time (EDT) Temp. Windchill Dew Point Humidity Pressure Visibility Wind Dir Wind Speed Gust Speed Precip Events Conditions
12:53 AM 37.9 °F - 33.1 °F 83% 30.24 in 10.0 mi Calm Calm - N/A   Clear
1:53 AM 42.1 °F - 26.1 °F 53% 30.26 in 10.0 mi Calm Calm - N/A   Clear
2:53 AM 41.0 °F 38.0 °F 25.0 °F 53% 30.25 in 10.0 mi NE 4.6 mph - N/A   Clear
3:53 AM 37.9 °F 35.5 °F 25.0 °F 60% 30.25 in 10.0 mi NE 3.5 mph - N/A   Clear
4:53 AM 37.0 °F - 25.0 °F 62% 30.26 in 10.0 mi Calm Calm - N/A   Clear
5:53 AM 33.1 °F - 26.1 °F 75% 30.27 in 10.0 mi Calm Calm - N/A   Clear
6:53 AM 33.1 °F - 28.0 °F 82% 30.29 in 10.0 mi Calm Calm - N/A   Clear
7:53 AM 34.0 °F - 28.9 °F 82% 30.31 in 10.0 mi Calm Calm - N/A   Clear
8:53 AM 39.9 °F 37.8 °F 27.0 °F 60% 30.32 in 10.0 mi NNW 3.5 mph - N/A   Clear
9:53 AM 46.9 °F - 24.1 °F 41% 30.33 in 10.0 mi NNE 6.9 mph - N/A   Clear
10:53 AM 50.0 °F - 21.9 °F 33% 30.33 in 10.0 mi ENE 5.8 mph - N/A   Clear
11:53 AM 52.0 °F - 21.9 °F 31% 30.32 in 10.0 mi North 8.1 mph - N/A   Clear
12:53 PM 54.0 °F - 21.9 °F 29% 30.29 in 10.0 mi NW 9.2 mph 17.3 mph N/A   Clear
1:53 PM 55.9 °F - 21.9 °F 27% 30.27 in 10.0 mi WNW 10.4 mph 18.4 mph N/A   Clear
2:53 PM 59.0 °F - 21.9 °F 24% 30.24 in 10.0 mi WNW 8.1 mph 17.3 mph N/A   Clear
3:53 PM 60.1 °F - 21.0 °F 22% 30.22 in 10.0 mi NW 9.2 mph - N/A   Clear
4:53 PM 61.0 °F - 21.0 °F 21% 30.20 in 10.0 mi NNW 12.7 mph 19.6 mph N/A   Clear
5:53 PM 61.0 °F - 19.9 °F 21% 30.20 in 10.0 mi NW 9.2 mph 18.4 mph N/A   Clear
6:53 PM 60.1 °F - 19.9 °F 21% 30.21 in 10.0 mi NNW 4.6 mph - N/A   Clear
7:53 PM 57.9 °F - 19.9 °F 23% 30.23 in 10.0 mi NNW 3.5 mph - N/A   Clear
8:53 PM 48.9 °F - 24.1 °F 38% 30.25 in 10.0 mi Calm Calm - N/A   Clear
9:53 PM 45.0 °F - 28.9 °F 53% 30.26 in 10.0 mi Calm Calm - N/A   Clear
10:53 PM 42.1 °F - 28.9 °F 60% 30.27 in 10.0 mi Calm Calm - N/A   Clear
11:53 PM 41.0 °F - 30.0 °F 65% 30.28 in 10.0 mi Calm Calm - N/A   Clear